Torna al catalogo

STARLINK-31726

AttivoComunicazioniVLEO
NORAD 59739·PAYLOAD·🇺🇸 United States

Lanciato May 13, 2024 da Cape Canaveral Space Force Station

Loading…

Prossimi Passaggi (prossime 24 ore)

TLE

AggiornatoSource: CelesTrak SupGP

Epoca: Sep 15, 2026, 02:37 UTC

1 59739C 24090K   26258.10951389 -.00048623  00000+0 -17611-2 0  2587
2 59739  42.9996 193.4470 0000905 274.9294  61.6813 15.27603714    15

Traccia STARLINK-31726 in tempo reale con AllMySat

Download on the App Store